• In Belarus
  • List of Countries
  • For 7 days
  • Water Temperature
  • Satellite Maps
  • Weather Map
  • Weather Widgets
  • user-avatar
    Login

    Hourly Weather Gureevka

    Today, 19 July, Thursday

    Time Temperature Precipitation Wind Pressure Humidity
    00:00 +18°C° 0 mm 2 mps 729 mmHg 97%
    01:00 +18°C° 0 mm 2 mps 729 mmHg 98%
    02:00 +17°C° 0 mm 2 mps 729 mmHg 98%
    03:00 +18°C° 0.1 mm 2 mps 729 mmHg 98%
    04:00 +18°C° 0.1 mm 2 mps 729 mmHg 98%
    05:00 +18°C° 0.1 mm 2 mps 729 mmHg 98%
    06:00 +19°C° 0.2 mm 2 mps 729 mmHg 96%
    07:00 +20°C° 0.2 mm 2 mps 729 mmHg 94%
    08:00 +20°C° 0.2 mm 2 mps 729 mmHg 92%
    09:00 +21°C° 0.6 mm 2 mps 729 mmHg 88%
    10:00 +23°C° 0.6 mm 2 mps 729 mmHg 84%
    11:00 +24°C° 0.6 mm 2 mps 729 mmHg 80%
    12:00 +25°C° 1.2 mm 2 mps 729 mmHg 79%
    13:00 +25°C° 1.2 mm 2 mps 729 mmHg 79%
    14:00 +25°C° 1.2 mm 2 mps 729 mmHg 79%
    15:00 +25°C° 0.7 mm 2 mps 729 mmHg 80%
    16:00 +25°C° 0.7 mm 2 mps 729 mmHg 81%
    17:00 +25°C° 0.7 mm 2 mps 729 mmHg 82%
    18:00 +23°C° 0.1 mm 2 mps 729 mmHg 86%
    19:00 +21°C° 0.1 mm 2 mps 729 mmHg 90%
    20:00 +20°C° 0.1 mm 2 mps 729 mmHg 94%
    21:00 +20°C° 0 mm 1 mps 729 mmHg 95%
    22:00 +20°C° 0 mm 1 mps 729 mmHg 95%
    23:00 +19°C° 0 mm 1 mps 729 mmHg 96%

    Tomorrow, 20 July, Friday

    Time Temperature Precipitation Wind Pressure Humidity
    00:00 +19°C° 0 mm 1 mps 729 mmHg 96%
    01:00 +19°C° 0 mm 1 mps 729 mmHg 96%
    02:00 +17°C° 0 mm 0 mps 729 mmHg 97%
    03:00 +17°C° 0 mm 0 mps 729 mmHg 97%
    04:00 +17°C° 0 mm 0 mps 729 mmHg 96%
    05:00 +18°C° 0 mm 0 mps 730 mmHg 96%
    06:00 +19°C° 0 mm 0 mps 730 mmHg 93%
    07:00 +20°C° 0 mm 0 mps 730 mmHg 90%
    08:00 +23°C° 0 mm 1 mps 730 mmHg 86%
    09:00 +24°C° 0.2 mm 1 mps 730 mmHg 82%
    10:00 +25°C° 0.2 mm 1 mps 730 mmHg 78%
    11:00 +26°C° 0.2 mm 1 mps 730 mmHg 75%
    12:00 +26°C° 0.7 mm 1 mps 730 mmHg 73%
    13:00 +27°C° 0.7 mm 1 mps 730 mmHg 72%
    14:00 +27°C° 0.7 mm 2 mps 730 mmHg 71%
    15:00 +27°C° 0.3 mm 2 mps 730 mmHg 72%
    16:00 +27°C° 0.3 mm 1 mps 730 mmHg 74%
    17:00 +27°C° 0.3 mm 1 mps 730 mmHg 75%
    18:00 +25°C° 0.2 mm 2 mps 730 mmHg 80%
    19:00 +24°C° 0.2 mm 2 mps 730 mmHg 85%
    20:00 +23°C° 0.2 mm 2 mps 731 mmHg 89%
    21:00 +21°C° 0 mm 2 mps 730 mmHg 90%
    22:00 +20°C° 0 mm 2 mps 730 mmHg 92%
    23:00 +20°C° 0 mm 2 mps 730 mmHg 93%

    Day after tomorrow, 21 July, Saturday

    Time Temperature Precipitation Wind Pressure Humidity
    00:00 +20°C° 0 mm 2 mps 731 mmHg 94%
    01:00 +20°C° 0 mm 1 mps 731 mmHg 94%
    02:00 +20°C° 0 mm 1 mps 731 mmHg 95%
    03:00 +20°C° 0 mm 1 mps 731 mmHg 95%
    04:00 +20°C° 0 mm 1 mps 731 mmHg 95%
    05:00 +20°C° 0 mm 1 mps 731 mmHg 96%
    06:00 +21°C° 0 mm 2 mps 731 mmHg 92%
    07:00 +23°C° 0 mm 2 mps 732 mmHg 88%
    08:00 +24°C° 0 mm 2 mps 732 mmHg 84%
    09:00 +25°C° 0.4 mm 2 mps 732 mmHg 80%
    10:00 +26°C° 0.4 mm 3 mps 732 mmHg 76%
    11:00 +27°C° 0.4 mm 3 mps 732 mmHg 72%
    12:00 +27°C° 0.2 mm 3 mps 732 mmHg 70%
    13:00 +28°C° 0.2 mm 3 mps 732 mmHg 68%
    14:00 +28°C° 0.2 mm 3 mps 732 mmHg 67%
    15:00 +28°C° 0.6 mm 3 mps 731 mmHg 70%
    16:00 +28°C° 0.6 mm 2 mps 731 mmHg 73%
    17:00 +27°C° 0.6 mm 2 mps 731 mmHg 76%
    18:00 +26°C° 0.5 mm 2 mps 731 mmHg 80%
    19:00 +24°C° 0.5 mm 2 mps 731 mmHg 84%
    20:00 +23°C° 0.5 mm 1 mps 731 mmHg 88%
    21:00 +22°C° 0.1 mm 1 mps 731 mmHg 90%
    22:00 +21°C° 0.1 mm 2 mps 731 mmHg 91%
    23:00 +20°C° 0.1 mm 2 mps 731 mmHg 93%

    22 July, Sunday

    Time Temperature Precipitation Wind Pressure Humidity
    00:00 +20°C° 0 mm 2 mps 731 mmHg 93%
    01:00 +19°C° 0 mm 2 mps 731 mmHg 94%
    02:00 +19°C° 0 mm 2 mps 731 mmHg 95%
    03:00 +19°C° 0 mm 2 mps 731 mmHg 95%
    04:00 +19°C° 0 mm 2 mps 731 mmHg 96%
    05:00 +19°C° 0 mm 2 mps 732 mmHg 96%
    06:00 +20°C° 0 mm 2 mps 732 mmHg 93%
    07:00 +21°C° 0 mm 2 mps 732 mmHg 90%
    08:00 +23°C° 0 mm 2 mps 732 mmHg 87%
    09:00 +24°C° 0 mm 3 mps 732 mmHg 84%
    10:00 +25°C° 0 mm 3 mps 732 mmHg 80%
    11:00 +26°C° 0 mm 3 mps 732 mmHg 76%
    12:00 +26°C° 0.1 mm 3 mps 732 mmHg 74%
    13:00 +27°C° 0.1 mm 3 mps 732 mmHg 72%
    14:00 +27°C° 0.1 mm 3 mps 732 mmHg 70%
    15:00 +27°C° 0.3 mm 3 mps 732 mmHg 72%
    16:00 +27°C° 0.3 mm 3 mps 732 mmHg 74%
    17:00 +27°C° 0.3 mm 3 mps 732 mmHg 76%
    18:00 +25°C° 0.3 mm 2 mps 732 mmHg 82%
    19:00 +24°C° 0.3 mm 2 mps 732 mmHg 87%
    20:00 +21°C° 0.3 mm 2 mps 732 mmHg 92%
    21:00 +21°C° 0 mm 2 mps 732 mmHg 93%
    22:00 +20°C° 0 mm 2 mps 732 mmHg 94%
    23:00 +20°C° 0 mm 2 mps 732 mmHg 95%

    23 July, Monday

    Time Temperature Precipitation Wind Pressure Humidity
    00:00 +20°C° 0 mm 2 mps 732 mmHg 96%
    01:00 +19°C° 0 mm 2 mps 732 mmHg 96%
    02:00 +20°C° 0 mm 1 mps 732 mmHg 97%
    03:00 +20°C° 0 mm 1 mps 732 mmHg 97%
    04:00 +20°C° 0 mm 1 mps 732 mmHg 97%
    05:00 +20°C° 0 mm 1 mps 732 mmHg 97%
    06:00 +20°C° 0 mm 2 mps 732 mmHg 94%
    07:00 +21°C° 0 mm 2 mps 732 mmHg 91%
    08:00 +23°C° 0 mm 2 mps 732 mmHg 88%
    09:00 +24°C° 0.1 mm 2 mps 733 mmHg 86%
    10:00 +24°C° 0.1 mm 2 mps 733 mmHg 83%
    11:00 +25°C° 0.1 mm 3 mps 733 mmHg 81%
    12:00 +25°C° 0.2 mm 2 mps 733 mmHg 79%
    13:00 +26°C° 0.2 mm 2 mps 733 mmHg 78%
    14:00 +26°C° 0.2 mm 2 mps 733 mmHg 77%
    15:00 +26°C° 0.1 mm 2 mps 733 mmHg 78%
    16:00 +26°C° 0.1 mm 2 mps 733 mmHg 78%
    17:00 +25°C° 0.1 mm 1 mps 733 mmHg 79%
    18:00 +24°C° 0 mm 1 mps 733 mmHg 83%
    19:00 +23°C° 0 mm 1 mps 733 mmHg 87%
    20:00 +22°C° 0 mm 1 mps 733 mmHg 90%
    21:00 +22°C° 0 mm 1 mps 733 mmHg 91%
    22:00 +21°C° 0 mm 1 mps 733 mmHg 91%
    23:00 +21°C° 0 mm 1 mps 734 mmHg 92%

    24 July, Tuesday

    Time Temperature Precipitation Wind Pressure Humidity
    00:00 +21°C° 0 mm 1 mps 734 mmHg 92%
    01:00 +19°C° 0 mm 0 mps 734 mmHg 92%
    02:00 +18°C° 0 mm 0 mps 734 mmHg 93%
    03:00 +18°C° 0 mm 0 mps 734 mmHg 93%
    04:00 +21°C° 0 mm 1 mps 734 mmHg 93%
    05:00 +21°C° 0 mm 1 mps 734 mmHg 93%
    06:00 +22°C° 0 mm 1 mps 734 mmHg 88%
    07:00 +23°C° 0 mm 1 mps 735 mmHg 84%
    08:00 +25°C° 0 mm 1 mps 735 mmHg 79%
    09:00 +26°C° 0 mm 1 mps 735 mmHg 75%
    10:00 +27°C° 0 mm 1 mps 735 mmHg 71%
    11:00 +28°C° 0 mm 1 mps 735 mmHg 67%
    12:00 +28°C° 0.1 mm 1 mps 735 mmHg 65%
    13:00 +28°C° 0.1 mm 1 mps 735 mmHg 63%
    14:00 +29°C° 0.1 mm 1 mps 735 mmHg 62%
    15:00 +29°C° 0.1 mm 1 mps 735 mmHg 63%
    16:00 +29°C° 0.1 mm 1 mps 735 mmHg 65%
    17:00 +29°C° 0.1 mm 1 mps 735 mmHg 66%
    18:00 +27°C° 1.3 mm 1 mps 735 mmHg 73%
    19:00 +25°C° 1.3 mm 1 mps 735 mmHg 79%
    20:00 +23°C° 1.3 mm 2 mps 735 mmHg 86%
    21:00 +23°C° 0.2 mm 2 mps 735 mmHg 87%
    22:00 +22°C° 0.2 mm 1 mps 735 mmHg 88%
    23:00 +22°C° 0.2 mm 1 mps 735 mmHg 90%
    Show more